Oscoda, MI

6:54 AM EDT on August 30, 2016 (GMT -0400)
Oscoda-Wurtsmith

Weather History for KOSC - August, 2013

Change the Weather History Date:

Wednesday, August 28, 2013

  Actual Average Record
Temperature  
Mean Temperature 72 °F -  
Max Temperature 80 °F 73 °F 91 °F (1999)
Min Temperature 65 °F 53 °F 44 °F (2014)
Cooling Degree Days 8    
Growing Degree Days 22 (Base 50)    
Moisture  
Dew Point 68 °F    
Average Humidity 86    
Maximum Humidity 99    
Minimum Humidity 67    
Precipitation  
Precipitation 0.01 in - - ()
Sea Level Pressure  
Sea Level Pressure 29.94 in    
Wind  
Wind Speed 5 mph (NE)    
Max Wind Speed 12 mph    
Max Gust Speed -    
Visibility 7 miles    
Events Fog , Rain    
Averages and records for this station are not official NWS values.
T = Trace of Precipitation, MM = Missing Value Source: NWS Daily Summary

Daily Weather History Graph

Daily Weather History Graph

Search for Another Location

Airport or City:

Trip Planner

Search our weather history database for the weather conditions in past years. The results will help you decide how hot, cold, wet, or windy it might be!

Date:

Astronomy

Aug. 28, 2013 Rise Set
Actual Time 6:51 AM EDT 8:16 PM EDT
Civil Twilight 6:21 AM EDT 8:46 PM EDT
Nautical Twilight 5:44 AM EDT 9:23 PM EDT
Astronomical Twilight 5:05 AM EDT 10:02 PM EDT
Moon No Moon Rise 3:00 PM EDT (8/28)
Length of Visible Light 14h 25m
Length of Day
13h 24m
Waning Gibbous, 47% of the Moon is Illuminated
Aug 28
Waning Gibbous
Sep 5
New
Sep 12
First Quarter
Sep 19
Full
Sep 26
Last Quarter

Hourly Weather History & Observations

Time (EDT) Temp. Heat Index Dew Point Humidity Pressure Visibility Wind Dir Wind Speed Gust Speed Precip Events Conditions
12:13 AM 70.7 °F - 69.8 °F 97% 29.86 in 7.0 mi Calm Calm - N/A   Overcast
12:34 AM 70.7 °F - 70.0 °F 98% 29.86 in 7.0 mi Calm Calm - N/A   Overcast
1:19 AM 70.9 °F - 70.2 °F 98% 29.85 in 7.0 mi Calm Calm - N/A   Overcast
1:33 AM 70.9 °F - 70.2 °F 98% 29.85 in 7.0 mi Calm Calm - N/A   Overcast
1:54 AM 71.1 °F - 70.3 °F 98% 29.84 in 5.0 mi South 3.5 mph - N/A   Overcast
2:14 AM 70.7 °F - 70.0 °F 98% 29.85 in 5.0 mi Calm Calm - N/A Rain Light Rain
2:54 AM 70.9 °F - 70.2 °F 98% 29.85 in 7.0 mi NE 4.6 mph - 0.01 in   Overcast
3:14 AM 70.7 °F - 69.8 °F 97% 29.85 in 7.0 mi NE 5.8 mph - N/A   Overcast
3:33 AM 70.7 °F - 69.8 °F 97% 29.85 in 5.0 mi ENE 6.9 mph - N/A   Overcast
3:54 AM 70.2 °F - 69.6 °F 98% 29.85 in 1.5 mi ENE 5.8 mph - N/A Rain Rain
4:14 AM 70.0 °F - 69.4 °F 98% 29.86 in 2.5 mi ENE 6.9 mph - N/A Rain Rain
4:33 AM 69.8 °F - 69.1 °F 98% 29.86 in 4.0 mi ENE 6.9 mph - N/A   Light Drizzle
4:54 AM 69.6 °F - 69.1 °F 98% 29.86 in 1.2 mi ENE 6.9 mph - N/A   Overcast
5:14 AM 69.6 °F - 68.9 °F 98% 29.87 in 3.0 mi NE 6.9 mph - N/A   Overcast
5:33 AM 69.8 °F - 69.1 °F 98% 29.88 in 4.0 mi NE 5.8 mph - N/A   Overcast
5:54 AM 69.6 °F - 69.1 °F 98% 29.88 in 5.0 mi NNE 6.9 mph - N/A   Overcast
6:14 AM 69.3 °F - 68.7 °F 98% 29.89 in 5.0 mi NE 6.9 mph - N/A   Overcast
6:33 AM 69.1 °F - 68.5 °F 98% 29.89 in 1.5 mi NE 6.9 mph - N/A   Overcast
6:54 AM 68.9 °F - 68.4 °F 98% 29.90 in 1.2 mi NNE 5.8 mph - N/A   Overcast
7:14 AM 68.7 °F - 68.0 °F 98% 29.90 in 0.5 mi NNE 6.9 mph - N/A Fog Fog
7:33 AM 68.5 °F - 68.0 °F 98% 29.91 in 0.2 mi NE 6.9 mph - N/A Fog Fog
7:54 AM 68.4 °F - 68.0 °F 99% 29.91 in 0.2 mi NNE 6.9 mph - N/A Fog Fog
8:14 AM 68.5 °F - 68.2 °F 99% 29.92 in 0.5 mi North 9.2 mph - N/A Fog Fog
8:33 AM 68.5 °F - 68.2 °F 99% 29.92 in 0.5 mi NNE 6.9 mph - N/A Fog Fog
8:54 AM 68.9 °F - 68.5 °F 99% 29.92 in 0.8 mi North 6.9 mph - N/A   Overcast
9:14 AM 69.8 °F - 69.4 °F 99% 29.92 in 2.0 mi North 5.8 mph - N/A   Overcast
9:33 AM 70.0 °F - 69.4 °F 98% 29.92 in 7.0 mi North 6.9 mph - N/A   Overcast
9:54 AM 71.1 °F - 69.8 °F 96% 29.93 in 10.0 mi North 5.8 mph - N/A   Mostly Cloudy
10:14 AM 73.0 °F - 70.2 °F 91% 29.93 in 10.0 mi North 5.8 mph - N/A   Scattered Clouds
10:33 AM 73.8 °F - 70.2 °F 88% 29.93 in 10.0 mi North 6.9 mph - N/A   Mostly Cloudy
10:54 AM 75.7 °F - 70.0 °F 82% 29.93 in 10.0 mi NNE 6.9 mph - N/A   Mostly Cloudy
11:14 AM 77.4 °F - 68.9 °F 75% 29.94 in 10.0 mi NNE 10.4 mph - N/A   Scattered Clouds
11:33 AM 77.9 °F - 68.2 °F 72% 29.94 in 10.0 mi NE 10.4 mph - N/A   Clear
11:54 AM 78.6 °F - 67.6 °F 69% 29.95 in 10.0 mi NNE 10.4 mph - N/A   Clear
12:13 PM 78.4 °F - 67.8 °F 70% 29.95 in 10.0 mi ENE 10.4 mph - N/A   Clear
12:33 PM 78.1 °F - 67.6 °F 70% 29.96 in 10.0 mi NE 10.4 mph - N/A   Clear
12:54 PM 78.1 °F - 67.8 °F 71% 29.96 in 10.0 mi NNE 10.4 mph - N/A   Clear
1:13 PM 78.8 °F - 68.2 °F 70% 29.97 in 10.0 mi NE 9.2 mph - N/A   Clear
1:33 PM 79.2 °F - 68.2 °F 69% 29.97 in 10.0 mi NE 9.2 mph - N/A   Clear
1:54 PM 79.0 °F - 68.5 °F 70% 29.98 in 10.0 mi NE 10.4 mph - N/A   Clear
2:13 PM 79.3 °F - 68.0 °F 68% 29.98 in 10.0 mi NE 11.5 mph - N/A   Clear
2:34 PM 79.3 °F - 68.0 °F 68% 29.97 in 10.0 mi NE 9.2 mph - N/A   Clear
2:54 PM 79.0 °F - 68.0 °F 69% 29.97 in 10.0 mi ENE 11.5 mph - N/A   Clear
3:13 PM 78.4 °F - 68.2 °F 71% 29.97 in 10.0 mi NE 10.4 mph - N/A   Clear
3:34 PM 79.2 °F - 68.7 °F 70% 29.97 in 10.0 mi NE 8.1 mph - N/A   Clear
3:54 PM 79.0 °F - 69.1 °F 72% 29.97 in 10.0 mi NE 6.9 mph - N/A   Clear
4:13 PM 80.2 °F 83.0 °F 68.5 °F 67% 29.97 in 10.0 mi NE 10.4 mph - N/A   Clear
4:34 PM 80.1 °F 82.7 °F 68.4 °F 67% 29.97 in 10.0 mi NE 8.1 mph - N/A   Clear
4:54 PM 79.0 °F - 68.4 °F 70% 29.97 in 10.0 mi ENE 8.1 mph - N/A   Clear
5:13 PM 78.6 °F - 68.4 °F 71% 29.98 in 10.0 mi NE 10.4 mph - N/A   Clear
5:34 PM 79.2 °F - 68.5 °F 70% 29.98 in 10.0 mi NNE 8.1 mph - N/A   Clear
5:53 PM 78.8 °F - 68.2 °F 70% 29.98 in 10.0 mi NNE 6.9 mph - N/A   Clear
6:14 PM 78.6 °F - 68.0 °F 70% 29.98 in 10.0 mi ENE 6.9 mph - N/A   Clear
6:34 PM 77.9 °F - 67.8 °F 71% 29.98 in 10.0 mi NE 6.9 mph - N/A   Clear
6:53 PM 77.2 °F - 67.8 °F 73% 29.98 in 10.0 mi NE 4.6 mph - N/A   Clear
7:14 PM 77.0 °F - 68.0 °F 74% 29.99 in 10.0 mi NNE 5.8 mph - N/A   Clear
7:34 PM 75.9 °F - 68.0 °F 76% 29.99 in 10.0 mi NNE 3.5 mph - N/A   Clear
7:53 PM 75.2 °F - 68.2 °F 79% 30.00 in 10.0 mi NNE 4.6 mph - N/A   Clear
8:14 PM 73.6 °F - 68.0 °F 83% 30.00 in 7.0 mi NNE 4.6 mph - N/A   Clear
8:34 PM 72.7 °F - 67.5 °F 84% 30.00 in 7.0 mi NNE 5.8 mph - N/A   Clear
8:53 PM 72.0 °F - 68.0 °F 87% 30.01 in 7.0 mi North 3.5 mph - N/A   Clear
9:14 PM 70.9 °F - 67.5 °F 89% 30.01 in 7.0 mi Calm Calm - N/A   Clear
9:34 PM 69.8 °F - 67.1 °F 91% 30.02 in 7.0 mi Calm Calm - N/A   Clear
9:53 PM 69.4 °F - 67.1 °F 92% 30.02 in 7.0 mi Calm Calm - N/A   Clear
10:14 PM 69.1 °F - 66.7 °F 92% 30.03 in 7.0 mi Calm Calm - N/A   Clear
10:34 PM 70.5 °F - 67.6 °F 91% 30.03 in 7.0 mi Calm Calm - N/A   Clear
10:53 PM 68.4 °F - 66.0 °F 92% 30.03 in 7.0 mi Calm Calm - N/A   Clear
11:14 PM 66.6 °F - 64.6 °F 93% 30.04 in 7.0 mi Calm Calm - N/A   Clear
11:34 PM 65.7 °F - 64.0 °F 94% 30.03 in 7.0 mi WNW 3.5 mph - N/A   Clear
11:53 PM 66.2 °F - 64.0 °F 93% 30.03 in 7.0 mi Calm Calm - N/A   Clear